Tracking 18624 objects as of 30-April-2017
HD Live streaming from Space Station
objects crossing your sky now

ARIANE 5 DEB (SYLDA)

Track ARIANE 5 DEB (SYLDA) now!


NORAD ID: 28914
Int'l Code: 2005-049D
Perigee: 661.1 km
Apogee: 36,027.6 km
Inclination: 4.0 °
Period: 644.5 minutes
Semi major axis: 24715 km
RCS: 22.4158 m2 (large)
Launch date: December 21, 2005
Source: France (FR)
Launch site: FRENCH GUIANA (FRGUI)

Note: This is SATELLITE DEBRIS
Your satellite tracking list
Your tracking list is empty





NASA's NSSDC Master Catalog

Two Line Element Set (TLE):
1 28914U 05049D   17118.92526470 +.00000031 +00000-0 +17096-2 0  9994
2 28914 004.0164 132.2310 7154760 000.3539 098.1208 02.23435788092666
Source of the keplerian elements: AFSPC